Weather History for KJQF - March, 2013

Change the Weather History Date:

Sunday, March 31, 2013

  Actual Average (KCLT) Record (KCLT)
Temperature  
Mean Temperature 60 °F 55 °F  
Max Temperature 71 °F 68 °F 86 °F (1986)
Min Temperature 50 °F 43 °F 21 °F (1964)
Degree Days  
Heating Degree Days 4 10  
Month to date heating degree days 434  
Since 1 July heating degree days 3132  
Cooling Degree Days 0 0  
Month to date cooling degree days 5  
Year to date cooling degree days 5  
Growing Degree Days 10 (Base 50)    
Moisture  
Dew Point 49 °F    
Average Humidity 82    
Maximum Humidity 100    
Minimum Humidity 46    
Precipitation  
Precipitation 0.26 in 0.12 in 2.21 in (1973)
Month to date precipitation 4.01  
Year to date precipitation 10.74  
Snow  
Snow 0.00 in 0.00 in 1.90 in (1915)
Month to date snowfall 0.6  
Since 1 July snowfall 4.3  
Snow Depth -    
Sea Level Pressure  
Sea Level Pressure 29.97 in    
Wind  
Wind Speed 3 mph (South)    
Max Wind Speed 14 mph    
Max Gust Speed 21 mph    
Visibility 8 miles    
Events      
T = Trace of Precipitation, MM = Missing Value Source: NWS Daily Summary

Daily Weather History Graph

Daily Weather History Graph

Search for Another Location

Airport or City:

Trip Planner

Search our weather history database for the weather conditions in past years. The results will help you decide how hot, cold, wet, or windy it might be!

Date:

Astronomy

Mar. 31, 2013 Rise Set
Actual Time 7:10 AM EDT 7:43 PM EDT
Civil Twilight 6:44 AM EDT 8:09 PM EDT
Nautical Twilight 6:14 AM EDT 8:39 PM EDT
Astronomical Twilight 5:44 AM EDT 9:10 PM EDT
Moon No Moon Rise 10:06 AM EDT (3/31)
Length of Visible Light 13h 24m
Length of Day
12h 33m
Waning Gibbous, 78% of the Moon is Illuminated
Mar 31
Waning Gibbous
Apr 3
Last Quarter
Apr 10
New
Apr 18
First Quarter
Apr 25
Full

Hourly Weather History & Observations

Time (EDT) Temp. Dew Point Humidity Pressure Visibility Wind Dir Wind Speed Gust Speed Precip Events Conditions
12:15 AM 53.6 °F 42.8 °F 67% 30.10 in 10.0 mi SE 5.8 mph - N/A   Clear
12:35 AM 53.6 °F 42.8 °F 67% 30.10 in 10.0 mi SE 5.8 mph - N/A   Clear
12:55 AM 53.6 °F 44.6 °F 72% 30.09 in 10.0 mi SE 5.8 mph - N/A   Mostly Cloudy
1:15 AM 53.6 °F 44.6 °F 72% 30.08 in 10.0 mi SE 3.5 mph - N/A   Mostly Cloudy
1:35 AM 53.6 °F 44.6 °F 72% 30.08 in 10.0 mi Calm Calm - N/A   Mostly Cloudy
1:55 AM 53.6 °F 44.6 °F 72% 30.07 in 10.0 mi SE 3.5 mph - N/A   Overcast
2:15 AM 53.6 °F 44.6 °F 72% 30.06 in 10.0 mi ESE 4.6 mph - N/A   Overcast
2:35 AM 53.6 °F 44.6 °F 72% 30.06 in 10.0 mi SSE 3.5 mph - N/A   Overcast
2:55 AM 51.8 °F 46.4 °F 82% 30.06 in 10.0 mi SSW 4.6 mph - N/A   Overcast
3:15 AM 51.8 °F 46.4 °F 82% 30.05 in 10.0 mi SE 3.5 mph - N/A   Overcast
3:35 AM 51.8 °F 46.4 °F 82% 30.04 in 7.0 mi Calm Calm - 0.02 in   Overcast
3:55 AM 50.0 °F 46.4 °F 87% 30.04 in 3.0 mi Calm Calm - 0.06 in   Overcast
4:15 AM 50.0 °F 46.4 °F 87% 30.00 in 4.0 mi East 3.5 mph - 0.04 in   Overcast
4:35 AM 50.0 °F 46.4 °F 87% 30.01 in 4.0 mi Calm Calm - 0.10 in   Overcast
4:55 AM 50.0 °F 48.2 °F 94% 30.00 in 4.0 mi Calm Calm - 0.13 in   Overcast
5:15 AM 50.0 °F 48.2 °F 94% 29.99 in 5.0 mi Calm Calm - 0.01 in   Overcast
5:35 AM 50.0 °F 48.2 °F 94% 29.99 in 4.0 mi Calm Calm - 0.02 in   Overcast
5:55 AM 50.0 °F 48.2 °F 94% 29.99 in 3.0 mi Calm Calm - 0.04 in   Overcast
6:15 AM 50.0 °F 48.2 °F 94% 29.98 in 3.0 mi Calm Calm - 0.01 in   Overcast
6:35 AM 50.0 °F 48.2 °F 94% 29.98 in 4.0 mi Calm Calm - 0.02 in   Overcast
6:50 AM 51.8 °F 48.2 °F 88% 29.98 in 4.0 mi Calm Calm - N/A   Overcast
6:55 AM 50.0 °F 48.2 °F 94% 29.98 in 4.0 mi Calm Calm - 0.02 in   Overcast
7:15 AM 50.0 °F 48.2 °F 94% 29.97 in 3.0 mi Calm Calm - 0.01 in   Overcast
7:35 AM 50.0 °F 48.2 °F 94% 29.97 in 4.0 mi Calm Calm - 0.01 in   Overcast
7:55 AM 51.8 °F 48.2 °F 88% 29.97 in 4.0 mi Calm Calm - N/A   Mostly Cloudy
8:55 AM 51.8 °F 51.8 °F 100% 29.97 in 4.0 mi Calm Calm - N/A   Overcast
9:55 AM 55.4 °F 53.6 °F 94% 29.96 in 7.0 mi Calm Calm - N/A   Overcast
10:55 AM 57.2 °F 53.6 °F 88% 29.95 in 7.0 mi WSW 5.8 mph - N/A   Overcast
11:55 AM 59.0 °F 53.6 °F 82% 29.95 in 7.0 mi West 6.9 mph - N/A   Overcast
12:55 PM 62.6 °F 55.4 °F 77% 29.93 in 10.0 mi WSW 9.2 mph 17.3 mph N/A   Overcast
1:55 PM 66.2 °F 53.6 °F 64% 29.90 in 10.0 mi SW 10.4 mph 16.1 mph N/A   Scattered Clouds
2:55 PM 69.8 °F 51.8 °F 53% 29.88 in 10.0 mi SW 11.5 mph 19.6 mph N/A   Overcast
3:55 PM 68.0 °F 51.8 °F 56% 29.88 in 10.0 mi SW 8.1 mph - N/A   Overcast
4:55 PM 71.6 °F 51.8 °F 50% 29.85 in 10.0 mi SW 13.8 mph 18.4 mph N/A   Mostly Cloudy
5:55 PM 69.8 °F 48.2 °F 46% 29.84 in 10.0 mi SSW 13.8 mph 19.6 mph N/A   Mostly Cloudy
6:55 PM 66.2 °F 50.0 °F 56% 29.87 in 10.0 mi SW 13.8 mph 20.7 mph N/A   Overcast
7:55 PM 62.6 °F 51.8 °F 68% 29.89 in 10.0 mi West 5.8 mph - N/A   Overcast
8:55 PM 57.2 °F 51.8 °F 82% 29.88 in 10.0 mi Calm Calm - N/A   Clear
9:15 PM 55.4 °F 51.8 °F 88% 29.88 in 10.0 mi Calm Calm - N/A   Clear
9:35 PM 53.6 °F 51.8 °F 94% 29.89 in 10.0 mi Calm Calm - N/A   Clear
9:55 PM 53.6 °F 51.8 °F 94% 29.89 in 10.0 mi Calm Calm - N/A   Clear
10:15 PM 53.6 °F 51.8 °F 94% 29.89 in 10.0 mi Calm Calm - N/A   Scattered Clouds
10:35 PM 53.6 °F 51.8 °F 94% 29.89 in 10.0 mi Calm Calm - N/A   Scattered Clouds
10:55 PM 53.6 °F 50.0 °F 88% 29.89 in 10.0 mi Calm Calm - N/A   Scattered Clouds
11:15 PM 53.6 °F 51.8 °F 94% 29.89 in 10.0 mi Calm Calm - N/A   Clear
11:35 PM 53.6 °F 51.8 °F 94% 29.89 in 10.0 mi Calm Calm - N/A   Scattered Clouds
11:55 PM 53.6 °F 51.8 °F 94% 29.89 in 10.0 mi Calm Calm - N/A   Mostly Cloudy